264P/Larsen (2019)

Japanese version
Home page
Updated on September 17, 2019

---------------------------------------------------------------------

* Profile

* Orbital Elements

Epoch 2019 July 16.0 TT = JDT 2458680.5
T 2019 Aug. 4.89841 TT                                  MPCW
q   2.4384106            (2000.0)            P               Q
n   0.12827496     Peri.  346.61744     -0.87247816     +0.40166761
a   3.8938104      Node   220.90288     -0.40002286     -0.91417328
e   0.3737726      Incl.   25.15147     -0.28064847     +0.05431706
P   7.68
From 98 observations 2004 Apr. 22-2019 May 2, mean residual 0".6.

* Magnitudes Graph

        m1 = 10 + 5 log d + 20 log r

---------------------------------------------------------------------

The orbital elements are published on M.P.E.C. 2019-J142.
The magnitudes graphs are made with Comet for Windows.

---------------------------------------------------------------------

Copyright(C) Seiichi Yoshida (comet@aerith.net). All rights reserved.